Estación de San Fernando

Ultimos registro cada 15 minutos 26
Estación Fecha / Hora Temperatura Humedad Lluvia Velocidad Dirección Radiación Presion
26 San Fernando 06-05-2026 06:15 8,7 93 0 0,4 99 0 1012,6
25 San Fernando 06-05-2026 06:00 8,7 93 0 0 99 0 1012,6
24 San Fernando 06-05-2026 05:45 8,9 93 0 0,4 108 0 1012,5
23 San Fernando 06-05-2026 05:30 8,8 94 0 0 66 0 1012,6
22 San Fernando 06-05-2026 05:15 8,6 92 0,3 0 66 0 1012,5
21 San Fernando 06-05-2026 05:00 8,9 92 0 0 66 0 1012,5
20 San Fernando 06-05-2026 04:45 8,9 92 0 0 66 0 1012,5
19 San Fernando 06-05-2026 04:30 9,3 91 0 0 66 0 1012,5
18 San Fernando 06-05-2026 04:15 9,7 91 0 0 66 0 1012,2
17 San Fernando 06-05-2026 04:00 10,1 90 0 0 66 0 1012,6
16 San Fernando 06-05-2026 03:45 10,5 90 0 0 66 0 1012,8
15 San Fernando 06-05-2026 03:30 10,7 91 0 0,9 87 0 1012,9
14 San Fernando 06-05-2026 03:15 10,7 91 0 0 120 0 1012,8
13 San Fernando 06-05-2026 03:00 10,6 91 0 0 80 0 1012,8
12 San Fernando 06-05-2026 02:45 10,7 91 0 0,4 80 0 1012,6
11 San Fernando 06-05-2026 02:30 10,7 91 0 0,9 96 0 1012,4
10 San Fernando 06-05-2026 02:15 10,9 90 0 1,3 48 0 1012,3
9 San Fernando 06-05-2026 02:00 11,4 89 0 1,8 93 0 1012,3
8 San Fernando 06-05-2026 01:45 11,1 91 0 0,4 85 0 1012,4
7 San Fernando 06-05-2026 01:30 11 90 0 0 105 0 1012,5
6 San Fernando 06-05-2026 01:15 11,1 91 0 0,4 82 0 1012,7
5 San Fernando 06-05-2026 01:00 11,4 90 0 0,4 120 0 1012,9
4 San Fernando 06-05-2026 00:45 11,3 91 0 1,8 75 0 1013,1
3 San Fernando 06-05-2026 00:30 11,1 91 0 0 72 0 1013,3
2 San Fernando 06-05-2026 00:15 11,1 90 0 0 72 0 1013,3
1 San Fernando 06-05-2026 00:00 11,3 90 0 0 72 0 1013,3